This demonstration page uses our WeatherBlox Daily Observations layout. Learn more.

Left ArrowRight Arrow

Hourly Observations for May 23, 2022

Temp ( °F °C ) Dew Point ( °F °C ) Humidity (%) Winds ( mph kmh ) Pressure ( in mb ) Visibility ( mi km ) Precip ( " mm )
12:15 am 00:15 undefined 51 10.5 41 5.1 69 69 Calm 30.36 1028 10 16 0.00 0.00
12:35 am 00:35 undefined 51 10.5 41 4.8 68 68 Calm 30.36 1028 10 16 0.00 0.00
12:55 am 00:55 undefined 51 10.3 40 4.7 69 69 Calm 30.35 1028 10 16 0.00 0.00
1:15 am 01:15 undefined 51 10.3 40 4.5 68 68 Calm 30.35 1028 10 16 0.00 0.00
1:35 am 01:35 undefined 50 10 40 4.6 69 69 Calm 30.35 1028 10 16 0.00 0.00
1:55 am 01:55 undefined 50 10.1 40 4.2 67 67 Calm 30.35 1028 10 16 0.00 0.00
2:15 am 02:15 undefined 50 10 40 4.2 68 68 Calm 30.34 1027 10 16 0.00 0.00
2:35 am 02:35 undefined 50 9.8 39 4 67 67 Calm 30.33 1027 10 16 0.00 0.00
2:55 am 02:55 undefined 49 9.7 39 3.7 67 67 Calm 30.33 1027 10 16 0.00 0.00
3:15 am 03:15 undefined 49 9.5 39 3.7 67 67 Calm 30.33 1027 10 16 0.00 0.00
3:35 am 03:35 undefined 49 9.3 39 3.7 68 68 Calm 30.32 1027 10 16 0.00 0.00
3:55 am 03:55 undefined 48 8.8 39 4 72 72 Calm 30.33 1027 10 16 0.00 0.00
4:15 am 04:15 undefined 47 8.4 40 4.3 76 76 Calm 30.33 1027 10 16 0.00 0.00
4:35 am 04:35 undefined 47 8.1 40 4.7 79 79 Calm 30.33 1027 10 16 0.00 0.00
4:55 am 04:55 undefined 47 8.3 39 4 75 75 Calm 30.33 1027 10 16 0.00 0.00
5:15 am 05:15 undefined 47 8.5 38 3.3 70 70 Calm 30.33 1027 10 16 0.00 0.00
5:35 am 05:35 undefined 47 8.5 38 3.1 69 69 Calm 30.33 1027 10 16 0.00 0.00
5:55 am 05:55 undefined 47 8.4 37 2.7 68 68 Calm 30.33 1027 10 16 0.00 0.00
6:15 am 06:15 undefined 47 8.3 37 2.6 68 68 Calm 30.34 1027 10 16 0.00 0.00
6:35 am 06:35 undefined 47 8.4 36 2.3 66 66 Calm 30.34 1027 10 16 0.00 0.00
8:15 am 08:15 undefined 50 10 38 3.3 63 63 ENE 8 13 30.35 1028 10 16 0.00 0.00
8:35 am 08:35 undefined 51 10.5 38 3.3 61 61 NE 12 19 30.35 1028 10 16 0.00 0.00
8:55 am 08:55 undefined 52 11 38 3.4 60 60 NE 5 7 30.35 1028 10 16 0.00 0.00
9:15 am 09:15 undefined 53 11.6 40 4.2 61 61 ENE 5 7 30.35 1028 10 16 0.00 0.00
9:35 am 09:35 undefined 54 12 39 3.8 58 58 NE 10 17 30.34 1028 10 16 0.00 0.00
9:55 am 09:55 undefined 54 12.3 38 3.4 55 55 ENE 9 15 30.34 1028 10 16 0.00 0.00
10:15 am 10:15 undefined 55 12.7 38 3.4 53 53 ENE 10 17 30.34 1027 10 16 0.00 0.00
10:35 am 10:35 undefined 56 13.4 38 3.6 52 52 ENE 14 22 30.33 1027 10 16 0.00 0.00
10:55 am 10:55 undefined 57 14 38 3.2 48 48 ENE 12 19 30.32 1027 10 16 0.00 0.00
11:15 am 11:15 undefined 57 14 37 2.6 46 46 NE 14 22 30.32 1027 10 16 0.00 0.00
11:35 am 11:35 undefined 58 14.7 38 3.2 46 46 NE 14 22 30.30 1026 10 16 0.00 0.00
11:55 am 11:55 undefined 59 15 38 3.1 45 45 NE 14 22 30.30 1026 10 16 0.00 0.00
12:15 pm 12:15 undefined 59 15.1 37 3 44 44 NNE 17 28 30.29 1026 10 16 0.00 0.00
12:35 pm 12:35 undefined 61 16 39 3.9 45 45 NE 12 19 30.28 1025 10 16 0.00 0.00
12:55 pm 12:55 undefined 61 16.1 39 3.9 44 44 NE 16 26 30.28 1025 10 16 0.00 0.00
1:15 pm 13:15 undefined 61 16.2 39 3.7 44 44 ENE 14 22 30.27 1025 10 16 0.00 0.00
1:35 pm 13:35 undefined 62 16.4 39 4.1 44 44 NE 13 20 30.27 1025 10 16 0.00 0.00
1:55 pm 13:55 undefined 63 17.1 41 4.8 44 44 NE 10 17 30.25 1024 10 16 0.00 0.00
2:15 pm 14:15 undefined 63 17.4 40 4.7 43 43 NE 13 20 30.24 1024 10 16 0.00 0.00
2:35 pm 14:35 undefined 64 18 42 5.6 44 44 ENE 10 17 30.23 1024 10 16 0.00 0.00
2:55 pm 14:55 undefined 64 17.9 42 5.4 44 44 NE 13 20 30.22 1023 10 16 0.00 0.00
3:15 pm 15:15 undefined 65 18.1 42 5.3 43 43 ENE 7 11 30.21 1023 10 16 0.00 0.00
3:35 pm 15:35 undefined 65 18.5 43 6 44 44 Calm 30.21 1023 10 16 0.00 0.00
3:55 pm 15:55 undefined 66 18.8 42 5.3 41 41 E 9 15 30.20 1023 10 16 0.00 0.00
4:15 pm 16:15 undefined 66 19 41 5.1 40 40 E 10 17 30.19 1022 10 16 0.00 0.00
4:35 pm 16:35 undefined 67 19.2 42 5.6 41 41 E 9 15 30.19 1022 10 16 0.00 0.00
4:55 pm 16:55 undefined 67 19.2 43 5.9 42 42 ENE 10 17 30.19 1022 10 16 0.00 0.00
5:15 pm 17:15 undefined 67 19.2 43 6.1 43 43 E 8 13 30.17 1022 10 16 0.00 0.00
5:35 pm 17:35 undefined 66 19 43 6.1 43 43 Calm 30.17 1022 10 16 0.00 0.00
5:55 pm 17:55 undefined 66 18.9 42 5.8 42 42 ENE 9 15 30.17 1022 10 16 0.00 0.00
6:15 pm 18:15 undefined 67 19.2 43 6.3 43 43 E 12 19 30.17 1022 10 16 0.00 0.00
6:35 pm 18:35 undefined 66 19 44 6.4 44 44 E 6 9 30.17 1022 10 16 0.00 0.00
6:55 pm 18:55 undefined 66 19 43 6.3 44 44 NE 7 11 30.17 1022 10 16 0.00 0.00
7:15 pm 19:15 undefined 65 18.5 43 5.9 44 44 E 7 11 30.17 1022 10 16 0.00 0.00
7:35 pm 19:35 undefined 65 18.5 43 6.3 45 45 ESE 3 6 30.17 1022 10 16 0.00 0.00
7:55 pm 19:55 undefined 64 18 44 6.4 47 47 Calm 30.17 1022 10 16 0.00 0.00
8:15 pm 20:15 undefined 63 17.4 44 6.8 50 50 ENE 5 7 30.20 1023 10 16 0.00 0.00
8:35 pm 20:35 undefined 62 16.5 45 7.2 54 54 Calm 30.20 1023 10 16 0.00 0.00
8:55 pm 20:55 undefined 59 15.1 46 7.6 61 61 Calm 30.19 1022 10 16 0.00 0.00
9:15 pm 21:15 undefined 57 14.1 46 7.6 65 65 Calm 30.21 1023 10 16 0.00 0.00
9:35 pm 21:35 undefined 56 13.2 46 8 71 71 Calm 30.20 1023 10 16 0.00 0.00
9:55 pm 21:55 undefined 55 12.5 47 8.3 76 76 Calm 30.19 1022 10 16 0.00 0.00
10:15 pm 22:15 undefined 56 13.6 46 7.5 67 67 Calm 30.19 1022 10 16 0.00 0.00
10:35 pm 22:35 undefined 57 13.7 46 7.6 67 67 NE 7 11 30.19 1022 10 16 0.00 0.00
10:55 pm 22:55 undefined 58 14.3 46 7.8 65 65 ENE 8 13 30.19 1022 10 16 0.00 0.00
11:15 pm 23:15 undefined 57 14 46 8 67 67 ENE 6 9 30.19 1022 10 16 0.00 0.00
11:35 pm 23:35 undefined 57 13.9 47 8.1 68 68 E 7 11 30.19 1022 10 16 0.00 0.00
11:55 pm 23:55 undefined 56 13.3 47 8.2 71 71 ENE 5 7 30.20 1023 10 16 0.00 0.00

Powered by AerisWeather